Year,Month,Day,Hour,Minute,Value (Times are PST for temperature in C)
2009,08,04,00,00,16.20
2009,08,04,00,01,16.10
2009,08,04,00,02,16.10
2009,08,04,00,03,16.10
2009,08,04,00,04,16.00
2009,08,04,00,05,16.00
2009,08,04,00,06,16.00
2009,08,04,00,07,16.00
2009,08,04,00,08,16.00
2009,08,04,00,09,16.00
2009,08,04,00,10,16.00
2009,08,04,00,11,16.00
2009,08,04,00,12,15.90
2009,08,04,00,13,15.90
2009,08,04,00,14,15.90
2009,08,04,00,15,15.90
2009,08,04,00,16,15.90
2009,08,04,00,17,15.90
2009,08,04,00,18,15.90
2009,08,04,00,19,15.90
2009,08,04,00,20,15.90
2009,08,04,00,21,15.90
2009,08,04,00,22,15.90
2009,08,04,00,23,15.90
2009,08,04,00,24,15.90
2009,08,04,00,25,15.90
2009,08,04,00,26,15.90
2009,08,04,00,27,15.80
2009,08,04,00,28,15.80
2009,08,04,00,29,15.80
2009,08,04,00,30,15.80
2009,08,04,00,31,15.80
2009,08,04,00,32,15.80
2009,08,04,00,33,15.80
2009,08,04,00,34,15.80
2009,08,04,00,35,15.80
2009,08,04,00,36,15.80
2009,08,04,00,37,15.70
2009,08,04,00,38,15.70
2009,08,04,00,39,15.70
2009,08,04,00,40,15.70
2009,08,04,00,41,15.70
2009,08,04,00,42,15.70
2009,08,04,00,43,15.60
2009,08,04,00,44,15.60
2009,08,04,00,45,15.60
2009,08,04,00,46,15.60
2009,08,04,00,47,15.60
2009,08,04,00,48,15.60
2009,08,04,00,49,15.60
2009,08,04,00,50,15.60
2009,08,04,00,51,15.50
2009,08,04,00,52,15.50
2009,08,04,00,53,15.50
2009,08,04,00,54,15.40
2009,08,04,00,55,15.40
2009,08,04,00,56,15.40
2009,08,04,00,57,15.40
2009,08,04,00,58,15.40
2009,08,04,00,59,15.40
2009,08,04,01,00,15.40
2009,08,04,01,01,15.30
2009,08,04,01,02,15.30
2009,08,04,01,03,15.30
2009,08,04,01,04,15.30
2009,08,04,01,05,15.30
2009,08,04,01,06,15.30
2009,08,04,01,07,15.30
2009,08,04,01,08,15.30
2009,08,04,01,09,15.30
2009,08,04,01,10,15.30
2009,08,04,01,11,15.30
2009,08,04,01,12,15.20
2009,08,04,01,13,15.20
2009,08,04,01,14,15.20
2009,08,04,01,15,15.20
2009,08,04,01,16,15.20
2009,08,04,01,17,15.20
2009,08,04,01,18,15.20
2009,08,04,01,19,15.20
2009,08,04,01,20,15.10
2009,08,04,01,21,15.10
2009,08,04,01,22,15.10
2009,08,04,01,23,15.10
2009,08,04,01,24,15.00
2009,08,04,01,25,15.00
2009,08,04,01,26,15.00
2009,08,04,01,27,15.00
2009,08,04,01,28,15.00
2009,08,04,01,29,15.00
2009,08,04,01,30,15.00
2009,08,04,01,31,15.00
2009,08,04,01,32,15.00
2009,08,04,01,33,15.00
2009,08,04,01,34,15.00
2009,08,04,01,35,15.00
2009,08,04,01,36,15.00
2009,08,04,01,37,15.00
2009,08,04,01,38,15.00
2009,08,04,01,39,15.00
2009,08,04,01,40,15.00
2009,08,04,01,41,15.00
2009,08,04,01,42,15.00
2009,08,04,01,43,14.90
2009,08,04,01,44,14.90
2009,08,04,01,45,14.90
2009,08,04,01,46,14.90
2009,08,04,01,47,14.90
2009,08,04,01,48,14.80
2009,08,04,01,49,14.80
2009,08,04,01,50,14.80
2009,08,04,01,51,14.80
2009,08,04,01,52,14.80
2009,08,04,01,53,14.80
2009,08,04,01,54,14.80
2009,08,04,01,55,14.80
2009,08,04,01,56,14.80
2009,08,04,01,57,14.80
2009,08,04,01,58,14.80
2009,08,04,01,59,14.80
2009,08,04,02,00,14.80
2009,08,04,02,01,14.80
2009,08,04,02,02,14.80
2009,08,04,02,03,14.80
2009,08,04,02,04,14.80
2009,08,04,02,05,14.80
2009,08,04,02,06,14.80
2009,08,04,02,07,14.80
2009,08,04,02,08,14.80
2009,08,04,02,09,14.80
2009,08,04,02,10,14.80
2009,08,04,02,11,14.80
2009,08,04,02,12,14.80
2009,08,04,02,13,14.80
2009,08,04,02,14,14.70
2009,08,04,02,15,14.70
2009,08,04,02,16,14.70
2009,08,04,02,17,14.70
2009,08,04,02,18,14.60
2009,08,04,02,19,14.60
2009,08,04,02,20,14.60
2009,08,04,02,21,14.50
2009,08,04,02,22,14.50
2009,08,04,02,23,14.50
2009,08,04,02,24,14.50
2009,08,04,02,25,14.40
2009,08,04,02,26,14.40
2009,08,04,02,27,14.40
2009,08,04,02,28,14.40
2009,08,04,02,29,14.40
2009,08,04,02,30,14.40
2009,08,04,02,31,14.40
2009,08,04,02,32,14.40
2009,08,04,02,33,14.40
2009,08,04,02,34,14.30
2009,08,04,02,35,14.30
2009,08,04,02,36,14.30
2009,08,04,02,37,14.30
2009,08,04,02,38,14.30
2009,08,04,02,39,14.30
2009,08,04,02,40,14.30
2009,08,04,02,41,14.30
2009,08,04,02,42,14.30
2009,08,04,02,43,14.30
2009,08,04,02,44,14.30
2009,08,04,02,45,14.30
2009,08,04,02,46,14.30
2009,08,04,02,47,14.30
2009,08,04,02,48,14.30
2009,08,04,02,49,14.30
2009,08,04,02,50,14.30
2009,08,04,02,51,14.30
2009,08,04,02,52,14.30
2009,08,04,02,53,14.30
2009,08,04,02,54,14.30
2009,08,04,02,55,14.30
2009,08,04,02,56,14.30
2009,08,04,02,57,14.30
2009,08,04,02,58,14.30
2009,08,04,02,59,14.30
2009,08,04,03,00,14.30
2009,08,04,03,01,14.30
2009,08,04,03,02,14.30
2009,08,04,03,03,14.30
2009,08,04,03,04,14.30
2009,08,04,03,05,14.30
2009,08,04,03,06,14.30
2009,08,04,03,07,14.30
2009,08,04,03,08,14.40
2009,08,04,03,09,14.40
2009,08,04,03,10,14.40
2009,08,04,03,11,14.40
2009,08,04,03,12,14.40
2009,08,04,03,13,14.40
2009,08,04,03,14,14.40
2009,08,04,03,15,14.40
2009,08,04,03,16,14.40
2009,08,04,03,17,14.40
2009,08,04,03,18,14.40
2009,08,04,03,19,14.40
2009,08,04,03,20,14.40
2009,08,04,03,21,14.30
2009,08,04,03,22,14.30
2009,08,04,03,23,14.30
2009,08,04,03,24,14.30
2009,08,04,03,25,14.30
2009,08,04,03,26,14.40
2009,08,04,03,27,14.30
2009,08,04,03,28,14.40
2009,08,04,03,29,14.40
2009,08,04,03,30,14.40
2009,08,04,03,31,14.40
2009,08,04,03,32,14.40
2009,08,04,03,33,14.30
2009,08,04,03,34,14.30
2009,08,04,03,35,14.30
2009,08,04,03,36,14.30
2009,08,04,03,37,14.30
2009,08,04,03,38,14.30
2009,08,04,03,39,14.30
2009,08,04,03,40,14.20
2009,08,04,03,41,14.20
2009,08,04,03,42,14.20
2009,08,04,03,43,14.30
2009,08,04,03,44,14.30
2009,08,04,03,45,14.30
2009,08,04,03,46,14.30
2009,08,04,03,47,14.30
2009,08,04,03,48,14.30
2009,08,04,03,49,14.20
2009,08,04,03,50,14.20
2009,08,04,03,51,14.20
2009,08,04,03,52,14.20
2009,08,04,03,53,14.20
2009,08,04,03,54,14.10
2009,08,04,03,55,14.10
2009,08,04,03,56,14.10
2009,08,04,03,57,14.10
2009,08,04,03,58,14.10
2009,08,04,03,59,14.00
2009,08,04,04,00,14.00
2009,08,04,04,01,14.00
2009,08,04,04,02,13.90
2009,08,04,04,03,13.90
2009,08,04,04,04,13.90
2009,08,04,04,05,13.90
2009,08,04,04,06,13.90
2009,08,04,04,07,13.80
2009,08,04,04,08,13.80
2009,08,04,04,09,13.80
2009,08,04,04,10,13.80
2009,08,04,04,11,13.80
2009,08,04,04,12,13.80
2009,08,04,04,13,13.80
2009,08,04,04,14,13.70
2009,08,04,04,15,13.70
2009,08,04,04,16,13.70
2009,08,04,04,17,13.70
2009,08,04,04,18,13.70
2009,08,04,04,19,13.70
2009,08,04,04,20,13.80
2009,08,04,04,21,13.80
2009,08,04,04,22,13.80
2009,08,04,04,23,13.80
2009,08,04,04,24,13.80
2009,08,04,04,25,13.80
2009,08,04,04,26,13.80
2009,08,04,04,27,13.80
2009,08,04,04,28,13.80
2009,08,04,04,29,13.90
2009,08,04,04,30,13.80
2009,08,04,04,31,13.80
2009,08,04,04,32,13.80
2009,08,04,04,33,13.80
2009,08,04,04,34,13.90
2009,08,04,04,35,13.90
2009,08,04,04,36,14.00
2009,08,04,04,37,14.00
2009,08,04,04,38,14.10
2009,08,04,04,39,14.10
2009,08,04,04,40,14.10
2009,08,04,04,41,14.10
2009,08,04,04,42,14.20
2009,08,04,04,43,14.20
2009,08,04,04,44,14.20
2009,08,04,04,45,14.20
2009,08,04,04,46,14.20
2009,08,04,04,47,14.10
2009,08,04,04,48,14.10
2009,08,04,04,49,14.10
2009,08,04,04,50,14.10
2009,08,04,04,51,14.10
2009,08,04,04,52,14.10
2009,08,04,04,53,14.20
2009,08,04,04,54,14.20
2009,08,04,04,55,14.20
2009,08,04,04,56,14.20
2009,08,04,04,57,14.20
2009,08,04,04,58,14.10
2009,08,04,04,59,14.10
2009,08,04,05,00,14.10
2009,08,04,05,01,14.10
2009,08,04,05,02,14.10
2009,08,04,05,03,14.00
2009,08,04,05,04,14.00
2009,08,04,05,05,14.00
2009,08,04,05,06,13.90
2009,08,04,05,07,13.90
2009,08,04,05,08,13.90
2009,08,04,05,09,13.90
2009,08,04,05,10,13.90
2009,08,04,05,11,13.90
2009,08,04,05,12,13.90
2009,08,04,05,13,13.90
2009,08,04,05,14,13.90
2009,08,04,05,15,13.90
2009,08,04,05,16,13.90
2009,08,04,05,17,13.80
2009,08,04,05,18,13.80
2009,08,04,05,19,13.80
2009,08,04,05,20,13.70
2009,08,04,05,21,13.70
2009,08,04,05,22,13.70
2009,08,04,05,23,13.70
2009,08,04,05,24,13.70
2009,08,04,05,25,13.60
2009,08,04,05,26,13.60
2009,08,04,05,27,13.60
2009,08,04,05,28,13.70
2009,08,04,05,29,13.70
2009,08,04,05,30,13.70
2009,08,04,05,31,13.70
2009,08,04,05,32,13.70
2009,08,04,05,33,13.70
2009,08,04,05,34,13.70
2009,08,04,05,35,13.70
2009,08,04,05,36,13.70
2009,08,04,05,37,13.70
2009,08,04,05,38,13.70
2009,08,04,05,39,13.70
2009,08,04,05,40,13.70
2009,08,04,05,41,13.60
2009,08,04,05,42,13.60
2009,08,04,05,43,13.60
2009,08,04,05,44,13.60
2009,08,04,05,45,13.50
2009,08,04,05,46,13.50
2009,08,04,05,47,13.50
2009,08,04,05,48,13.40
2009,08,04,05,49,13.40
2009,08,04,05,50,13.40
2009,08,04,05,51,13.40
2009,08,04,05,52,13.30
2009,08,04,05,53,13.30
2009,08,04,05,54,13.30
2009,08,04,05,55,13.30
2009,08,04,05,56,13.30
2009,08,04,05,57,13.20
2009,08,04,05,58,13.20
2009,08,04,05,59,13.20
2009,08,04,06,00,13.20
2009,08,04,06,01,13.20
2009,08,04,06,02,13.20
2009,08,04,06,03,13.10
2009,08,04,06,04,13.10
2009,08,04,06,05,13.10
2009,08,04,06,06,13.10
2009,08,04,06,07,13.10
2009,08,04,06,08,13.10
2009,08,04,06,09,13.10
2009,08,04,06,10,13.10
2009,08,04,06,11,13.10
2009,08,04,06,12,13.00
2009,08,04,06,13,13.00
2009,08,04,06,14,13.00
2009,08,04,06,15,12.90
2009,08,04,06,16,12.90
2009,08,04,06,17,12.90
2009,08,04,06,18,12.90
2009,08,04,06,19,12.90
2009,08,04,06,20,12.90
2009,08,04,06,21,12.90
2009,08,04,06,22,12.90
2009,08,04,06,23,12.90
2009,08,04,06,24,12.90
2009,08,04,06,25,12.90
2009,08,04,06,26,12.90
2009,08,04,06,27,12.90
2009,08,04,06,28,13.00
2009,08,04,06,29,13.00
2009,08,04,06,30,13.10
2009,08,04,06,31,13.10
2009,08,04,06,32,13.10
2009,08,04,06,33,13.10
2009,08,04,06,34,13.20
2009,08,04,06,35,13.20
2009,08,04,06,36,13.20
2009,08,04,06,37,13.20
2009,08,04,06,38,13.20
2009,08,04,06,39,13.20
2009,08,04,06,40,13.20
2009,08,04,06,41,13.20
2009,08,04,06,42,13.30
2009,08,04,06,43,13.30
2009,08,04,06,44,13.30
2009,08,04,06,45,13.30
2009,08,04,06,46,13.40
2009,08,04,06,47,13.40
2009,08,04,06,48,13.40
2009,08,04,06,49,13.40
2009,08,04,06,50,13.40
2009,08,04,06,51,13.40
2009,08,04,06,52,13.40
2009,08,04,06,53,13.50
2009,08,04,06,54,13.50
2009,08,04,06,55,13.50
2009,08,04,06,56,13.50
2009,08,04,06,57,13.50
2009,08,04,06,58,13.50
2009,08,04,06,59,13.50
2009,08,04,07,00,13.50
2009,08,04,07,01,13.50
2009,08,04,07,02,13.50
2009,08,04,07,03,13.50
2009,08,04,07,04,13.50
2009,08,04,07,05,13.50
2009,08,04,07,06,13.50
2009,08,04,07,07,13.50
2009,08,04,07,08,13.50
2009,08,04,07,09,13.50
2009,08,04,07,10,13.60
2009,08,04,07,11,13.60
2009,08,04,07,12,13.60
2009,08,04,07,13,13.70
2009,08,04,07,14,13.70
2009,08,04,07,15,13.70
2009,08,04,07,16,13.80
2009,08,04,07,17,13.80
2009,08,04,07,18,13.80
2009,08,04,07,19,13.90
2009,08,04,07,20,14.00
2009,08,04,07,21,14.00
2009,08,04,07,22,14.10
2009,08,04,07,23,14.10
2009,08,04,07,24,14.20
2009,08,04,07,25,14.20
2009,08,04,07,26,14.20
2009,08,04,07,27,14.30
2009,08,04,07,28,14.30
2009,08,04,07,29,14.40
2009,08,04,07,30,14.50
2009,08,04,07,31,14.50
2009,08,04,07,32,14.60
2009,08,04,07,33,14.70
2009,08,04,07,34,14.80
2009,08,04,07,35,14.80
2009,08,04,07,36,14.90
2009,08,04,07,37,15.00
2009,08,04,07,38,15.00
2009,08,04,07,39,15.00
2009,08,04,07,40,15.00
2009,08,04,07,41,15.00
2009,08,04,07,42,15.00
2009,08,04,07,43,15.00
2009,08,04,07,44,15.10
2009,08,04,07,45,15.20
2009,08,04,07,46,15.20
2009,08,04,07,47,15.30
2009,08,04,07,48,15.40
2009,08,04,07,49,15.50
2009,08,04,07,50,15.60
2009,08,04,07,51,15.70
2009,08,04,07,52,15.80
2009,08,04,07,53,15.80
2009,08,04,07,54,15.90
2009,08,04,07,55,15.90
2009,08,04,07,56,16.00
2009,08,04,07,57,16.00
2009,08,04,07,58,16.00
2009,08,04,07,59,16.10
2009,08,04,08,00,16.10
2009,08,04,08,01,16.20
2009,08,04,08,02,16.20
2009,08,04,08,03,16.30
2009,08,04,08,04,16.30
2009,08,04,08,05,16.30
2009,08,04,08,06,16.40
2009,08,04,08,07,16.40
2009,08,04,08,08,16.50
2009,08,04,08,09,16.50
2009,08,04,08,10,16.50
2009,08,04,08,11,16.60
2009,08,04,08,12,16.60
2009,08,04,08,13,16.60
2009,08,04,08,14,16.70
2009,08,04,08,15,16.70
2009,08,04,08,16,16.70
2009,08,04,08,17,16.80
2009,08,04,08,18,16.80
2009,08,04,08,19,16.90
2009,08,04,08,20,17.00
2009,08,04,08,21,17.00
2009,08,04,08,22,17.10
2009,08,04,08,23,17.20
2009,08,04,08,24,17.20
2009,08,04,08,25,17.30
2009,08,04,08,26,17.30
2009,08,04,08,27,17.40
2009,08,04,08,28,17.40
2009,08,04,08,29,17.50
2009,08,04,08,30,17.60
2009,08,04,08,31,17.70
2009,08,04,08,32,17.80
2009,08,04,08,33,17.90
2009,08,04,08,34,18.00
2009,08,04,08,35,18.10
2009,08,04,08,36,18.30
2009,08,04,08,37,18.30
2009,08,04,08,38,18.20
2009,08,04,08,39,18.20
2009,08,04,08,40,18.20
2009,08,04,08,41,18.10
2009,08,04,08,42,18.20
2009,08,04,08,43,18.20
2009,08,04,08,44,18.20
2009,08,04,08,45,18.20
2009,08,04,08,46,18.20
2009,08,04,08,47,18.30
2009,08,04,08,48,18.30
2009,08,04,08,49,18.30
2009,08,04,08,50,18.30
2009,08,04,08,51,18.30
2009,08,04,08,52,18.40
2009,08,04,08,53,18.30
2009,08,04,08,54,18.30
2009,08,04,08,55,18.40
2009,08,04,08,56,18.40
2009,08,04,08,57,18.40
2009,08,04,08,58,18.50
2009,08,04,08,59,18.50
2009,08,04,09,00,18.60
2009,08,04,09,01,18.60
2009,08,04,09,02,18.60
2009,08,04,09,03,18.60
2009,08,04,09,04,18.60
2009,08,04,09,05,18.60
2009,08,04,09,06,18.70
2009,08,04,09,07,18.70
2009,08,04,09,08,18.70
2009,08,04,09,09,18.60
2009,08,04,09,10,18.60
2009,08,04,09,11,18.60
2009,08,04,09,12,18.70
2009,08,04,09,13,18.70
2009,08,04,09,14,18.70
2009,08,04,09,15,18.70
2009,08,04,09,16,18.70
2009,08,04,09,17,18.70
2009,08,04,09,18,18.70
2009,08,04,09,19,18.80
2009,08,04,09,20,18.80
2009,08,04,09,21,18.90
2009,08,04,09,22,19.00
2009,08,04,09,23,19.10
2009,08,04,09,24,19.20
2009,08,04,09,25,19.30
2009,08,04,09,26,19.50
2009,08,04,09,27,19.50
2009,08,04,09,28,19.60
2009,08,04,09,29,19.60
2009,08,04,09,30,19.60
2009,08,04,09,31,19.60
2009,08,04,09,32,19.50
2009,08,04,09,33,19.40
2009,08,04,09,34,19.30
2009,08,04,09,35,19.30
2009,08,04,09,36,19.20
2009,08,04,09,37,19.20
2009,08,04,09,38,19.10
2009,08,04,09,39,19.10
2009,08,04,09,40,19.10
2009,08,04,09,41,19.10
2009,08,04,09,42,19.10
2009,08,04,09,43,19.10
2009,08,04,09,44,19.10
2009,08,04,09,45,19.00
2009,08,04,09,46,19.00
2009,08,04,09,47,18.90
2009,08,04,09,48,18.90
2009,08,04,09,49,18.90
2009,08,04,09,50,18.90
2009,08,04,09,51,18.90
2009,08,04,09,52,18.90
2009,08,04,09,53,18.80
2009,08,04,09,54,18.80
2009,08,04,09,55,18.80
2009,08,04,09,56,18.80
2009,08,04,09,57,18.80
2009,08,04,09,58,18.80
2009,08,04,09,59,18.80
2009,08,04,10,00,18.80
2009,08,04,10,01,18.80
2009,08,04,10,02,18.90
2009,08,04,10,03,18.90
2009,08,04,10,04,18.90
2009,08,04,10,05,18.90
2009,08,04,10,06,18.80
2009,08,04,10,07,18.80
2009,08,04,10,08,18.80
2009,08,04,10,09,18.80
2009,08,04,10,10,18.80
2009,08,04,10,11,18.70
2009,08,04,10,12,18.70
2009,08,04,10,13,18.60
2009,08,04,10,14,18.50
2009,08,04,10,15,18.50
2009,08,04,10,16,18.40
2009,08,04,10,17,18.40
2009,08,04,10,18,18.40
2009,08,04,10,19,18.40
2009,08,04,10,20,18.40
2009,08,04,10,21,18.40
2009,08,04,10,22,18.40
2009,08,04,10,23,18.40
2009,08,04,10,24,18.40
2009,08,04,10,25,18.40
2009,08,04,10,26,18.50
2009,08,04,10,27,18.50
2009,08,04,10,28,18.50
2009,08,04,10,29,18.40
2009,08,04,10,30,18.30
2009,08,04,10,31,18.20
2009,08,04,10,32,18.10
2009,08,04,10,33,18.10
2009,08,04,10,34,18.10
2009,08,04,10,35,18.10
2009,08,04,10,36,18.10
2009,08,04,10,37,18.10
2009,08,04,10,38,18.10
2009,08,04,10,39,18.10
2009,08,04,10,40,18.10
2009,08,04,10,41,18.10
2009,08,04,10,42,18.10
2009,08,04,10,43,18.10
2009,08,04,10,44,18.20
2009,08,04,10,45,18.20
2009,08,04,10,46,18.20
2009,08,04,10,47,18.20
2009,08,04,10,48,18.10
2009,08,04,10,49,18.00
2009,08,04,10,50,17.90
2009,08,04,10,51,17.90
2009,08,04,10,52,17.90
2009,08,04,10,53,17.90
2009,08,04,10,54,17.90
2009,08,04,10,55,17.80
2009,08,04,10,56,17.80
2009,08,04,10,57,17.80
2009,08,04,10,58,17.70
2009,08,04,10,59,17.50
2009,08,04,11,00,17.40
2009,08,04,11,01,17.20
2009,08,04,11,02,17.10
2009,08,04,11,03,17.10
2009,08,04,11,04,17.10
2009,08,04,11,05,17.00
2009,08,04,11,06,17.00
2009,08,04,11,07,17.00
2009,08,04,11,08,16.90
2009,08,04,11,09,16.90
2009,08,04,11,10,16.80
2009,08,04,11,11,16.90
2009,08,04,11,12,16.90
2009,08,04,11,13,16.90
2009,08,04,11,14,16.90
2009,08,04,11,15,16.90
2009,08,04,11,16,16.90
2009,08,04,11,17,16.90
2009,08,04,11,18,16.90
2009,08,04,11,19,16.90
2009,08,04,11,20,16.80
2009,08,04,11,21,16.80
2009,08,04,11,22,16.70
2009,08,04,11,23,16.70
2009,08,04,11,24,16.70
2009,08,04,11,25,16.70
2009,08,04,11,26,16.70
2009,08,04,11,27,16.70
2009,08,04,11,28,16.80
2009,08,04,11,29,16.90
2009,08,04,11,30,17.00
2009,08,04,11,31,17.10
2009,08,04,11,32,17.10
2009,08,04,11,33,17.10
2009,08,04,11,34,17.10
2009,08,04,11,35,17.10
2009,08,04,11,36,17.10
2009,08,04,11,37,17.10
2009,08,04,11,38,17.10
2009,08,04,11,39,17.00
2009,08,04,11,40,17.10
2009,08,04,11,41,17.10
2009,08,04,11,42,17.10
2009,08,04,11,43,17.10
2009,08,04,11,44,17.00
2009,08,04,11,45,16.90
2009,08,04,11,46,16.90
2009,08,04,11,47,16.80
2009,08,04,11,48,16.80
2009,08,04,11,49,16.70
2009,08,04,11,50,16.70
2009,08,04,11,51,16.80
2009,08,04,11,52,16.80
2009,08,04,11,53,16.90
2009,08,04,11,54,16.90
2009,08,04,11,55,16.90
2009,08,04,11,56,16.90
2009,08,04,11,57,16.90
2009,08,04,11,58,16.90
2009,08,04,11,59,16.90
2009,08,04,12,00,16.90
2009,08,04,12,01,16.90
2009,08,04,12,02,16.90
2009,08,04,12,03,16.90
2009,08,04,12,04,16.90
2009,08,04,12,05,16.90
2009,08,04,12,06,16.90
2009,08,04,12,07,16.90
2009,08,04,12,08,16.80
2009,08,04,12,09,16.80
2009,08,04,12,10,16.80
2009,08,04,12,11,16.80
2009,08,04,12,12,16.80
2009,08,04,12,13,16.80
2009,08,04,12,14,16.90
2009,08,04,12,15,16.90
2009,08,04,12,16,16.90
2009,08,04,12,17,17.00
2009,08,04,12,18,17.00
2009,08,04,12,19,17.00
2009,08,04,12,20,16.90
2009,08,04,12,21,17.00
2009,08,04,12,22,17.00
2009,08,04,12,23,17.10
2009,08,04,12,24,17.10
2009,08,04,12,25,17.20
2009,08,04,12,26,17.20
2009,08,04,12,27,17.30
2009,08,04,12,28,17.30
2009,08,04,12,29,17.40
2009,08,04,12,30,17.40
2009,08,04,12,31,17.60
2009,08,04,12,32,17.70
2009,08,04,12,33,17.80
2009,08,04,12,34,17.80
2009,08,04,12,35,17.90
2009,08,04,12,36,18.00
2009,08,04,12,37,18.10
2009,08,04,12,38,18.20
2009,08,04,12,39,18.30
2009,08,04,12,40,18.30
2009,08,04,12,41,18.40
2009,08,04,12,42,18.40
2009,08,04,12,43,18.30
2009,08,04,12,44,18.30
2009,08,04,12,45,18.20
2009,08,04,12,46,18.20
2009,08,04,12,47,18.20
2009,08,04,12,48,18.10
2009,08,04,12,49,18.10
2009,08,04,12,50,18.10
2009,08,04,12,51,18.10
2009,08,04,12,52,18.10
2009,08,04,12,53,18.10
2009,08,04,12,54,18.10
2009,08,04,12,55,18.10
2009,08,04,12,56,18.10
2009,08,04,12,57,18.10
2009,08,04,12,58,18.10
2009,08,04,12,59,18.10
2009,08,04,13,00,18.10
2009,08,04,13,01,18.00
2009,08,04,13,02,17.90
2009,08,04,13,03,17.90
2009,08,04,13,04,17.80
2009,08,04,13,05,17.80
2009,08,04,13,06,17.80
2009,08,04,13,07,17.80
2009,08,04,13,08,17.70
2009,08,04,13,09,17.70
2009,08,04,13,10,17.70
2009,08,04,13,11,17.70
2009,08,04,13,12,17.80
2009,08,04,13,13,17.80
2009,08,04,13,14,17.80
2009,08,04,13,15,17.90
2009,08,04,13,16,18.00
2009,08,04,13,17,18.10
2009,08,04,13,18,18.10
2009,08,04,13,19,18.10
2009,08,04,13,20,18.10
2009,08,04,13,21,18.10
2009,08,04,13,22,18.10
2009,08,04,13,23,18.10
2009,08,04,13,24,18.20
2009,08,04,13,25,18.20
2009,08,04,13,26,18.30
2009,08,04,13,27,18.40
2009,08,04,13,28,18.40
2009,08,04,13,29,18.40
2009,08,04,13,30,18.30
2009,08,04,13,31,18.20
2009,08,04,13,32,18.20
2009,08,04,13,33,18.10
2009,08,04,13,34,18.10
2009,08,04,13,35,18.00
2009,08,04,13,36,18.00
2009,08,04,13,37,17.90
2009,08,04,13,38,17.80
2009,08,04,13,39,17.70
2009,08,04,13,40,17.70
2009,08,04,13,41,17.60
2009,08,04,13,42,17.60
2009,08,04,13,43,17.50
2009,08,04,13,44,17.50
2009,08,04,13,45,17.60
2009,08,04,13,46,17.60
2009,08,04,13,47,17.70
2009,08,04,13,48,17.70
2009,08,04,13,49,17.80
2009,08,04,13,50,17.90
2009,08,04,13,51,17.90
2009,08,04,13,52,17.90
2009,08,04,13,53,17.90
2009,08,04,13,54,17.90
2009,08,04,13,55,17.90
2009,08,04,13,56,17.90
2009,08,04,13,57,18.00
2009,08,04,13,58,18.00
2009,08,04,13,59,18.10
2009,08,04,14,00,18.20
2009,08,04,14,01,18.30
2009,08,04,14,02,18.20
2009,08,04,14,03,18.20
2009,08,04,14,04,18.20
2009,08,04,14,05,18.20
2009,08,04,14,06,18.20
2009,08,04,14,07,18.30
2009,08,04,14,08,18.30
2009,08,04,14,09,18.40
2009,08,04,14,10,18.50
2009,08,04,14,11,18.50
2009,08,04,14,12,18.50
2009,08,04,14,13,18.50
2009,08,04,14,14,18.60
2009,08,04,14,15,18.60
2009,08,04,14,16,18.70
2009,08,04,14,17,18.80
2009,08,04,14,18,18.80
2009,08,04,14,19,18.80
2009,08,04,14,20,18.80
2009,08,04,14,21,18.80
2009,08,04,14,22,18.80
2009,08,04,14,23,18.70
2009,08,04,14,24,18.70
2009,08,04,14,25,18.70
2009,08,04,14,26,18.70
2009,08,04,14,27,18.70
2009,08,04,14,28,18.70
2009,08,04,14,29,18.80
2009,08,04,14,30,18.80
2009,08,04,14,31,18.90
2009,08,04,14,32,18.90
2009,08,04,14,33,18.90
2009,08,04,14,34,18.90
2009,08,04,14,35,18.90
2009,08,04,14,36,18.90
2009,08,04,14,37,18.90
2009,08,04,14,38,18.80
2009,08,04,14,39,18.80
2009,08,04,14,40,18.70
2009,08,04,14,41,18.70
2009,08,04,14,42,18.70
2009,08,04,14,43,18.70
2009,08,04,14,44,18.60
2009,08,04,14,45,18.60
2009,08,04,14,46,18.60
2009,08,04,14,47,18.60
2009,08,04,14,48,18.60
2009,08,04,14,49,18.50
2009,08,04,14,50,18.50
2009,08,04,14,51,18.40
2009,08,04,14,52,18.30
2009,08,04,14,53,18.20
2009,08,04,14,54,18.10
2009,08,04,14,55,18.00
2009,08,04,14,56,17.90
2009,08,04,14,57,17.80
2009,08,04,14,58,17.80
2009,08,04,14,59,17.70
2009,08,04,15,00,17.70
2009,08,04,15,01,17.60
2009,08,04,15,02,17.50
2009,08,04,15,03,17.40
2009,08,04,15,04,17.30
2009,08,04,15,05,17.30
2009,08,04,15,06,17.20
2009,08,04,15,07,17.20
2009,08,04,15,08,17.30
2009,08,04,15,09,17.30
2009,08,04,15,10,17.30
2009,08,04,15,11,17.30
2009,08,04,15,12,17.30
2009,08,04,15,13,17.30
2009,08,04,15,14,17.30
2009,08,04,15,15,17.30
2009,08,04,15,16,17.40
2009,08,04,15,17,17.40
2009,08,04,15,18,17.40
2009,08,04,15,19,17.50
2009,08,04,15,20,17.50
2009,08,04,15,21,17.60
2009,08,04,15,22,17.60
2009,08,04,15,23,17.60
2009,08,04,15,24,17.70
2009,08,04,15,25,17.70
2009,08,04,15,26,17.80
2009,08,04,15,27,17.80
2009,08,04,15,28,17.80
2009,08,04,15,29,17.90
2009,08,04,15,30,17.90
2009,08,04,15,31,18.00
2009,08,04,15,32,18.10
2009,08,04,15,33,18.10
2009,08,04,15,34,18.10
2009,08,04,15,35,18.10
2009,08,04,15,36,18.10
2009,08,04,15,37,18.20
2009,08,04,15,38,18.10
2009,08,04,15,39,18.00
2009,08,04,15,40,18.00
2009,08,04,15,41,17.90
2009,08,04,15,42,17.90
2009,08,04,15,43,17.90
2009,08,04,15,44,17.90
2009,08,04,15,45,17.90
2009,08,04,15,46,17.90
2009,08,04,15,47,17.90
2009,08,04,15,48,17.80
2009,08,04,15,49,17.80
2009,08,04,15,50,17.70
2009,08,04,15,51,17.70
2009,08,04,15,52,17.60
2009,08,04,15,53,17.70
2009,08,04,15,54,17.70
2009,08,04,15,55,17.70
2009,08,04,15,56,17.80
2009,08,04,15,57,17.80
2009,08,04,15,58,17.90
2009,08,04,15,59,18.00
2009,08,04,16,00,18.00
2009,08,04,16,01,18.00
2009,08,04,16,02,18.10
2009,08,04,16,03,18.20
2009,08,04,16,04,18.20
2009,08,04,16,05,18.30
2009,08,04,16,06,18.30
2009,08,04,16,07,18.30
2009,08,04,16,08,18.20
2009,08,04,16,09,18.20
2009,08,04,16,10,18.20
2009,08,04,16,11,18.20
2009,08,04,16,12,18.20
2009,08,04,16,13,18.20
2009,08,04,16,14,18.20
2009,08,04,16,15,18.20
2009,08,04,16,16,18.30
2009,08,04,16,17,18.30
2009,08,04,16,18,18.30
2009,08,04,16,19,18.30
2009,08,04,16,20,18.30
2009,08,04,16,21,18.40
2009,08,04,16,22,18.40
2009,08,04,16,23,18.50
2009,08,04,16,24,18.60
2009,08,04,16,25,18.60
2009,08,04,16,26,18.70
2009,08,04,16,27,18.70
2009,08,04,16,28,18.70
2009,08,04,16,29,18.80
2009,08,04,16,30,18.80
2009,08,04,16,31,18.80
2009,08,04,16,32,18.80
2009,08,04,16,33,18.80
2009,08,04,16,34,18.80
2009,08,04,16,35,18.70
2009,08,04,16,36,18.60
2009,08,04,16,37,18.60
2009,08,04,16,38,18.50
2009,08,04,16,39,18.40
2009,08,04,16,40,18.30
2009,08,04,16,41,18.20
2009,08,04,16,42,18.10
2009,08,04,16,43,18.00
2009,08,04,16,44,17.90
2009,08,04,16,45,17.80
2009,08,04,16,46,17.80
2009,08,04,16,47,17.80
2009,08,04,16,48,17.90
2009,08,04,16,49,18.00
2009,08,04,16,50,18.10
2009,08,04,16,51,18.20
2009,08,04,16,52,18.30
2009,08,04,16,53,18.50
2009,08,04,16,54,18.60
2009,08,04,16,55,18.60
2009,08,04,16,56,18.80
2009,08,04,16,57,18.80
2009,08,04,16,58,18.90
2009,08,04,16,59,18.90
2009,08,04,17,00,19.00
2009,08,04,17,01,19.00
2009,08,04,17,02,19.00
2009,08,04,17,03,18.90
2009,08,04,17,04,18.70
2009,08,04,17,05,18.60
2009,08,04,17,06,18.50
2009,08,04,17,07,18.40
2009,08,04,17,08,18.20
2009,08,04,17,09,17.90
2009,08,04,17,10,17.60
2009,08,04,17,11,17.40
2009,08,04,17,12,17.30
2009,08,04,17,13,17.20
2009,08,04,17,14,17.20
2009,08,04,17,15,17.10
2009,08,04,17,16,17.10
2009,08,04,17,17,17.10
2009,08,04,17,18,17.10
2009,08,04,17,19,17.10